User: anonymous   Login
Location: Dappach
(48.9767°N, 9.6998°E)
Time: 13:31:05
(UTC+00:00)
Language:

deb r/b Ablestar - Orbit

View from above orbital plane
View from above orbital plane
View from above satellite
View from above satellite

Ground track
Ground track

The orbit data is extracted from the following two-line orbital elements,

1   410U 61015EK  24276.92048671  .00000373  00000-0  45748-3 0  9990
2   410  66.6916  88.3538 0009106  38.7961 111.5977 13.76424011174918
Epoch (UTC): 02 October 2024 22:05:30
Eccentricity: 0.0009106
inclination: 66.6916°
perigee height: 970 km
apogee height: 983 km
right ascension of ascending node: 88.3538°
argument of perigee: 38.7961°
revolutions per day: 13.76424011
mean anomaly at epoch: 111.5977°
orbit number at epoch: 17491

The dashed part of the orbit path shows where the satellite is in the earth's shadow,  

DLR